Theta_e
354 356 356 356 358 359 358 359 361 362 362 361 360 360 360 358 358 355 354 350 347 347 346 345 345 347 341 340 341 339 337 335 330 335 337 342 344 344 342 345 343 343 341
353 355 356 357 358 358 358 359 361 360 363 363 362 360 359 358 358 355 352 349 347 346 346 345 343 342 344 344 340 343 340 340 335 337 339 338 341 345 345 345 341 339 341
353 353 355 356 357 357 358 359 361 360 361 360 361 360 359 358 357 355 354 351 349 348 347 346 344 343 342 340 341 339 339 340 340 336 334 338 339 340 340 342 343 343 341
351 352 354 356 356 357 358 359 360 360 360 360 361 361 360 358 356 355 354 352 351 349 348 347 346 344 343 344 342 342 343 340 340 337 335 335 337 340 338 336 335 338 335
351 350 352 356 357 358 358 359 359 360 359 360 359 360 359 358 354 355 354 353 352 349 348 347 347 345 339 342 341 343 344 340 337 335 334 335 335 334 335 338 333 334 337
351 350 353 355 357 357 357 358 359 359 360 359 358 357 357 354 340 337 350 353 353 351 349 348 349 342 339 333 334 336 342 342 340 336 334 334 338 337 335 334 331 330 328
351 352 354 355 355 356 357 358 358 358 360 359 357 357 357 357 331 331 336 354 353 352 352 351 348 346 340 344 332 331 332 332 336 344 339 339 340 338 334 336 336 335 332
351 352 354 355 354 356 357 356 357 357 357 358 358 357 357 356 328 327 333 352 355 354 354 353 352 350 346 346 341 337 339 342 340 340 344 345 345 342 339 341 340 338 336
350 352 353 354 355 356 355 355 356 356 356 356 359 359 357 357 326 324 332 348 352 354 354 353 352 351 337 329 341 339 342 342 332 328 330 328 328 328 333 337 332 329 326
351 352 355 356 354 355 355 356 358 358 357 356 357 359 349 358 326 322 331 350 351 351 351 352 331 344 324 322 341 344 341 340 341 338 337 329 326 332 326 338 334 326 322
352 353 357 358 358 358 357 358 354 356 359 358 356 357 357 353 353 320 321 350 350 348 347 346 344 323 317 317 325 345 341 343 336 338 335 331 331 332 331 331 331 324 320
352 354 358 359 356 354 358 354 352 352 355 356 354 348 351 357 332 318 316 324 337 348 345 345 340 317 314 314 321 322 319 329 336 334 328 328 329 328 325 326 328 327 326
351 354 356 358 357 360 357 349 353 351 351 352 350 344 350 351 350 318 315 318 322 340 342 333 320 314 312 313 316 315 317 334 332 329 330 329 328 326 326 325 324 325 325
353 354 356 356 356 358 357 357 354 354 353 353 352 353 352 352 342 327 323 326 320 326 321 321 319 320 320 325 320 320 333 334 333 331 330 328 325 322 321 321 320 319 317
349 350 352 348 342 337 335 345 345 334 347 356 356 356 350 341 326 317 323 331 329 323 327 329 326 325 325 325 325 327 331 330 330 330 327 323 322 322 322 322 320 318 314
338 339 337 337 338 341 337 328 307 307 306 306 308 318 319 312 308 307 309 309 310 313 326 327 325 327 327 325 323 324 327 328 329 326 324 322 322 321 321 319 318 315 313
338 336 335 334 338 337 336 334 330 318 304 300 301 307 312 315 308 308 309 308 306 310 328 326 325 327 327 327 326 327 326 327 327 323 322 323 323 323 319 318 316 313 310
339 322 339 338 339 338 336 334 332 329 327 324 304 305 298 300 302 299 300 305 311 322 329 327 326 328 328 327 326 325 325 324 323 323 323 324 323 322 319 316 313 311 308
337 338 339 339 337 332 334 332 332 333 331 328 320 309 301 295 295 296 299 325 324 328 328 330 330 328 326 326 325 325 325 324 324 324 324 323 323 319 315 313 310 303 304
337 323 330 333 332 333 335 334 334 333 331 327 325 323 312 315 312 315 323 326 326 328 329 327 329 329 327 325 325 325 325 322 324 324 323 320 317 315 313 309 308 307 307
332 334 326 336 336 335 335 332 329 325 326 326 326 319 306 323 320 323 325 327 327 326 330 332 329 327 325 325 325 324 323 322 321 319 316 315 314 312 310 309 308 307 307
334 332 334 332 331 331 331 330 329 326 323 320 318 313 305 325 324 325 328 330 332 332 331 328 326 326 326 324 323 321 319 318 317 316 314 313 312 310 309 308 308 307 306
336 335 335 334 332 323 330 330 330 329 325 323 320 322 326 329 330 329 328 329 328 327 327 326 324 323 323 322 321 321 318 317 316 315 312 311 310 309 309 307 307 306 305
332 333 332 332 331 331 330 328 326 318 327 323 321 321 327 327 326 326 326 326 325 324 324 323 323 321 321 320 320 319 318 317 316 314 313 311 309 306 308 307 307 305 305
329 328 328 329 329 329 330 329 329 328 326 326 327 326 326 323 322 324 324 323 323 322 322 323 322 322 321 320 319 318 303 296 311 303 312 311 310 309 307 306 304 304 305
325 325 322 322 324 323 323 323 322 321 320 321 320 319 321 326 324 323 323 324 321 322 322 322 321 321 320 320 319 305 288 289 301 294 310 310 308 307 305 304 303 303 304
Wind_Speed
20 20 19 18 19 17 16 16 15 14 14 14 14 13 14 14 14 12 12 11 12 11 10 10 11 9 7 7 6 5 5 5 6 3 3 3 4 4 4 4 5 5 5
21 20 21 19 19 19 19 18 16 16 15 15 15 15 15 15 15 15 15 13 14 14 13 12 12 9 10 9 8 8 7 7 6 6 3 5 7 5 5 4 4 5 6
21 21 20 21 20 21 21 19 18 17 17 16 15 15 16 16 15 16 16 15 15 15 14 14 13 12 11 9 9 8 7 6 6 6 5 4 4 4 4 5 5 5 6
21 22 21 22 22 21 21 19 19 18 17 17 17 16 16 16 16 16 17 16 16 15 15 15 14 14 14 13 10 10 8 8 7 7 6 6 5 4 5 6 5 4 4
20 21 23 22 20 19 19 19 20 19 19 18 18 17 17 16 15 17 17 17 16 17 16 15 15 16 16 14 10 11 10 9 8 8 7 6 6 6 6 2 5 5 4
20 23 20 19 20 22 21 21 20 19 18 18 19 19 19 15 18 20 19 16 17 17 16 15 15 15 14 15 16 10 13 12 11 8 8 8 9 7 4 5 4 7 7
21 19 18 19 21 22 21 20 21 21 19 20 19 19 20 20 19 22 23 16 16 16 16 15 14 12 16 16 15 13 12 14 11 11 10 10 7 7 4 7 7 6 7
18 16 16 18 20 18 18 21 20 19 21 20 20 21 20 18 20 23 26 19 16 18 17 17 16 15 15 14 12 13 13 14 13 11 11 10 6 5 6 4 5 5 5
19 19 20 20 19 18 20 22 20 18 19 20 18 19 20 18 21 24 23 20 20 18 16 17 17 15 14 17 13 13 13 12 7 7 5 2 5 6 5 5 5 5 7
19 22 19 17 18 20 22 21 16 16 18 15 18 19 19 20 20 24 25 16 17 14 15 15 14 13 15 19 15 14 14 11 11 11 10 6 6 7 8 8 4 6 5
14 14 15 16 16 14 9 8 7 9 11 11 11 9 12 15 15 23 28 17 14 11 12 11 10 17 18 17 15 11 11 11 11 9 8 6 7 7 7 7 5 5 4
10 13 13 13 12 12 12 10 9 8 9 9 11 11 13 16 16 16 20 25 14 13 11 8 9 18 14 14 14 11 14 13 10 8 6 8 8 7 6 6 5 4 3
10 11 12 12 12 12 13 13 14 15 16 13 13 13 8 11 12 20 23 25 15 13 14 8 7 13 11 10 8 12 15 8 10 9 10 8 7 6 7 5 5 4 5
10 10 10 11 11 13 11 11 9 11 13 14 12 13 10 10 8 6 9 11 13 7 18 18 24 14 13 12 6 9 7 8 9 9 8 7 7 7 6 6 6 5 5
8 9 9 8 10 7 4 1 4 1 9 13 13 12 10 8 5 8 12 12 8 9 19 9 5 10 12 11 9 9 7 7 8 8 8 9 8 7 6 5 4 4 6
9 6 6 8 8 8 9 7 10 3 14 16 14 11 7 17 19 20 16 15 23 22 18 12 11 9 10 9 11 10 9 10 9 9 9 9 8 7 7 5 4 5 5
10 9 7 8 8 10 10 11 11 5 13 16 9 21 21 20 22 23 24 23 19 18 11 10 3 6 6 9 10 11 10 9 10 9 9 8 8 7 6 6 6 5 5
8 9 8 7 8 8 8 8 8 8 7 5 11 6 12 3 9 4 9 12 8 8 10 13 11 9 8 8 8 9 9 9 9 9 9 8 8 7 7 6 6 5 5
7 5 6 7 6 7 7 5 5 5 5 6 4 6 8 13 12 10 5 6 10 9 10 10 9 9 8 8 8 8 10 10 9 9 8 8 7 7 7 6 5 3 0
5 7 5 6 4 4 4 3 3 4 3 5 6 6 5 3 3 5 3 4 5 6 8 8 8 8 9 10 10 9 8 8 8 8 8 8 8 7 7 7 6 5 4
5 4 3 4 3 3 1 2 2 3 4 4 4 4 6 6 8 6 5 7 6 6 7 9 9 9 9 9 9 8 8 8 8 8 8 7 7 7 7 7 6 4 3
4 4 3 4 4 3 4 5 5 6 7 7 5 3 7 6 6 6 6 6 7 8 7 9 9 9 10 10 10 9 8 8 8 7 7 7 7 8 8 6 4 3 4
5 6 5 6 6 4 5 5 5 6 7 7 6 5 5 6 7 6 7 8 7 7 7 7 8 8 8 8 8 7 7 7 7 7 8 8 8 8 7 6 4 4 5
7 7 7 7 6 6 6 7 8 8 8 8 6 5 5 5 5 6 7 7 7 7 7 8 8 12 10 9 7 7 5 5 5 7 9 8 8 8 7 5 4 5 6
9 10 9 8 8 7 6 7 7 7 7 6 6 6 5 6 5 4 5 5 5 5 7 8 9 13 13 13 11 10 11 10 7 7 8 8 9 10 7 5 5 6 7
11 11 8 7 9 9 7 6 5 4 4 4 4 4 4 4 4 3 3 4 5 6 9 8 11 14 14 12 13 12 10 10 9 8 8 8 8 6 6 6 8 7 8
Wind_Direction
201 202 204 205 206 208 209 210 209 205 205 207 205 204 205 203 201 202 207 200 203 205 206 207 210 206 212 210 204 204 211 218 242 179 233 199 242 230 198 198 215 233 234
199 201 203 205 203 205 207 207 204 206 204 205 202 207 208 206 203 205 208 208 208 209 209 207 213 206 210 213 212 209 212 206 237 240 212 215 231 206 244 253 258 257 268
198 200 202 203 202 203 209 207 202 205 205 205 205 206 207 208 206 210 210 211 214 214 212 210 213 207 209 210 214 206 206 203 213 245 245 235 240 240 230 240 245 234 242
199 199 200 203 205 204 206 205 202 203 202 202 204 205 208 210 211 210 210 213 219 221 218 216 214 210 211 203 206 211 209 213 209 228 242 233 230 202 241 255 243 242 274
197 200 206 204 202 204 206 207 207 202 202 201 200 203 207 211 210 206 208 210 213 219 219 220 221 218 213 204 203 205 204 215 218 218 231 236 228 220 247 276 258 283 256
198 205 204 201 198 202 204 203 204 205 205 203 203 202 202 210 202 191 198 205 212 215 217 218 224 212 207 192 202 204 199 205 222 228 231 233 238 229 225 263 268 264 291
201 206 203 201 204 205 203 202 203 202 200 205 205 205 209 211 189 188 194 205 209 213 214 215 219 218 210 210 206 201 203 212 222 214 229 233 247 206 201 221 242 259 275
205 204 203 206 209 207 206 208 207 202 203 203 205 205 209 211 186 187 193 210 215 217 214 213 215 217 208 205 186 205 216 218 223 229 230 243 231 205 217 242 261 254 255
203 204 204 202 204 202 209 211 209 205 205 206 207 206 209 214 186 188 184 206 221 216 213 211 210 210 193 184 190 197 206 210 185 215 232 147 191 198 240 214 224 234 255
203 207 204 204 206 207 209 211 212 211 216 212 205 206 209 215 191 187 187 207 215 215 210 213 201 201 171 178 194 196 203 193 189 178 184 174 179 189 195 227 228 257 272
204 205 205 206 210 215 213 214 213 234 245 236 230 235 248 250 228 190 194 208 216 204 206 201 196 184 174 202 196 191 191 176 174 182 170 155 174 177 193 209 213 242 246
190 197 199 201 204 200 194 182 182 205 217 204 217 215 185 233 224 200 189 209 201 197 201 204 191 175 186 186 193 162 148 151 165 172 164 184 183 191 179 172 176 222 247
182 194 197 197 197 193 183 189 194 169 214 197 231 243 205 205 208 189 188 199 177 190 153 177 215 178 192 124 242 164 162 162 171 161 188 190 181 172 154 161 186 208 236
181 187 188 194 190 195 201 199 206 196 207 225 217 229 221 203 190 156 164 173 151 157 136 144 136 153 185 142 164 190 182 183 171 173 183 168 149 163 178 188 206 206 251
158 159 162 143 139 120 88 245 160 298 222 213 215 212 207 188 156 140 164 146 115 68 333 42 113 152 173 151 161 170 162 170 164 166 164 163 169 175 185 186 208 212 252
123 121 135 137 140 137 121 107 43 112 121 106 99 120 79 122 121 123 134 132 129 148 126 195 174 235 172 154 155 151 169 179 166 166 168 167 175 183 184 186 206 233 250
130 140 143 143 150 150 148 139 130 59 51 30 62 141 142 153 149 153 157 158 163 149 144 133 147 188 189 171 158 157 167 174 160 166 165 171 181 186 178 192 202 222 233
125 133 144 153 162 157 152 136 134 138 120 107 43 58 25 122 173 135 137 118 143 160 156 142 160 172 187 158 158 155 157 159 173 168 172 180 181 182 188 196 205 219 227
122 131 137 143 140 137 129 119 132 143 149 142 137 62 31 66 70 102 184 181 171 156 145 138 154 160 152 148 154 161 167 169 168 170 180 178 180 183 187 199 189 212 227
84 63 113 108 118 153 191 213 261 254 200 160 165 139 133 114 127 141 186 188 167 138 135 140 150 145 153 158 157 161 165 160 163 178 173 170 177 187 192 188 194 189 193
61 78 96 136 189 184 229 65 84 146 135 155 115 106 176 182 153 152 172 182 170 138 148 151 154 145 141 147 151 162 166 158 169 170 168 175 172 187 193 186 188 179 219
78 98 109 114 120 139 136 132 139 121 107 100 99 87 137 124 129 127 159 165 153 161 148 134 142 148 152 153 152 155 157 164 164 172 175 177 183 195 185 186 176 201 230
76 88 87 82 89 115 98 93 99 95 107 109 128 138 135 128 138 144 139 129 127 119 126 139 140 144 143 145 139 146 164 177 172 174 178 184 189 192 181 173 184 217 236
68 66 62 62 61 74 74 90 93 83 93 99 101 106 107 106 113 113 121 127 131 143 151 149 149 150 147 141 142 150 157 147 161 176 184 186 186 175 171 173 194 220 248
48 57 43 36 35 52 72 71 76 80 92 101 113 109 99 82 83 107 123 143 145 140 155 160 160 159 159 158 160 163 114 139 173 152 184 183 181 169 179 190 200 218 226
37 47 37 34 44 31 20 20 46 72 64 72 106 107 99 97 97 111 125 147 162 170 173 174 170 167 166 173 175 152 144 158 156 187 173 171 170 176 181 204 215 223 222